Weather History for KTQE - January, 2012

Change the Weather History Date:

Tuesday, January 17, 2012

  Actual Average Record
Temperature  
Mean Temperature 11 °F -  
Max Temperature 21 °F 31 °F 57 °F (1986)
Min Temperature 1 °F 10 °F -13 °F (1977)
Degree Days  
Heating Degree Days 54    
Moisture  
Dew Point 6 °F    
Average Humidity 68    
Maximum Humidity 79    
Minimum Humidity 50    
Precipitation  
Precipitation 0.00 in - - ()
Sea Level Pressure  
Sea Level Pressure 30.26 in    
Wind  
Wind Speed 18 mph (NNW)    
Max Wind Speed 25 mph    
Max Gust Speed 33 mph    
Visibility 8 miles    
Events Snow    
Averages and records for this station are not official NWS values.
T = Trace of Precipitation, MM = Missing Value Source: NWS Daily Summary

Daily Weather History Graph

Daily Weather History Graph

Search for Another Location

Airport or City:

Trip Planner

Search our weather history database for the weather conditions in past years. The results will help you decide how hot, cold, wet, or windy it might be!

Date:

Astronomy

Jan. 17, 2012 Rise Set
Actual Time 7:48 AM CST 5:20 PM CST
Civil Twilight 7:18 AM CST 5:51 PM CST
Nautical Twilight 6:44 AM CST 6:25 PM CST
Astronomical Twilight 6:10 AM CST 6:59 PM CST
Moon 2:09 AM CST (1/17) 12:15 PM CST (1/17)
Length of Visible Light 10h 33m
Length of Day
9h 32m
Waning Crescent, 35% of the Moon is Illuminated
Jan 17
Waning Crescent
Jan 23
New
Jan 30
First Quarter
Feb 7
Full
Feb 14
Last Quarter

Hourly Weather History & Observations

Time (CST) Temp. Windchill Dew Point Humidity Pressure Visibility Wind Dir Wind Speed Gust Speed Precip Events Conditions
12:54 AM 19.9 °F 5.2 °F 8.1 °F 60% 30.01 in 10.0 mi North 17.3 mph 26.5 mph N/A   Partly Cloudy
1:54 AM 19.9 °F 3.9 °F 10.0 °F 65% 30.03 in 10.0 mi North 20.7 mph 26.5 mph N/A   Overcast
2:54 AM 19.9 °F 2.8 °F 10.0 °F 65% 30.05 in 10.0 mi NNW 24.2 mph 28.8 mph N/A   Overcast
3:09 AM 19.4 °F 3.2 °F 10.4 °F 68% 30.03 in 10.0 mi NNW 20.7 mph - N/A   Overcast
3:44 AM 19.4 °F 3.2 °F 10.4 °F 68% 30.05 in 10.0 mi NNW 20.7 mph 31.1 mph N/A   Mostly Cloudy
3:54 AM 19.0 °F 2.0 °F 10.9 °F 71% 30.08 in 10.0 mi NNW 23.0 mph 28.8 mph N/A   Mostly Cloudy
4:20 AM 17.6 °F 0.1 °F 10.4 °F 73% 30.08 in 5.0 mi NNW 23.0 mph 33.4 mph 0.00 in Snow Light Snow
4:52 AM 17.6 °F 0.5 °F 10.4 °F 73% 30.09 in 7.0 mi NNW 21.9 mph - 0.00 in   Overcast
4:54 AM 18.0 °F 1.3 °F 10.0 °F 71% 30.13 in 7.0 mi NNW 20.7 mph 28.8 mph 0.00 in   Overcast
6:54 AM 15.1 °F -4.0 °F 8.1 °F 74% 30.22 in 6.0 mi NW 25.3 mph 31.1 mph 0.00 in Snow Light Snow
7:54 AM 14.0 °F -4.3 °F 7.0 °F 74% 30.27 in 2.0 mi NW 21.9 mph 29.9 mph 0.00 in Snow Light Snow
8:10 AM 12.2 °F -7.1 °F 6.8 °F 79% 30.25 in 1.8 mi NW 23.0 mph 27.6 mph 0.00 in Snow Light Snow
8:30 AM 12.2 °F -5.8 °F 6.8 °F 79% 30.26 in 2.5 mi NW 19.6 mph - 0.00 in Snow Blowing Snow
8:38 AM 12.2 °F -7.1 °F 6.8 °F 79% 30.27 in 4.0 mi NNW 23.0 mph 29.9 mph 0.00 in   Overcast
8:54 AM 14.0 °F -3.4 °F 6.1 °F 71% 30.33 in 3.0 mi NNW 19.6 mph - 0.00 in   Haze
9:03 AM 14.0 °F -3.0 °F 6.8 °F 73% 30.29 in 1.8 mi NNW 18.4 mph - 0.00 in Snow Light Snow
9:14 AM 14.0 °F -3.4 °F 6.8 °F 73% 30.30 in 1.5 mi NNW 19.6 mph 27.6 mph 0.00 in Snow Light Snow
9:21 AM 14.0 °F -4.3 °F 6.8 °F 73% 30.30 in 3.0 mi NW 21.9 mph - 0.00 in   Overcast
9:54 AM 15.1 °F -3.3 °F 6.1 °F 68% 30.36 in 6.0 mi NW 23.0 mph 31.1 mph 0.00 in   Haze
10:16 AM 15.8 °F -1.5 °F 6.8 °F 68% 30.32 in 10.0 mi NNW 20.7 mph - N/A   Scattered Clouds
10:54 AM 18.0 °F 1.7 °F 7.0 °F 62% 30.38 in 10.0 mi NNW 19.6 mph - N/A   Scattered Clouds
11:54 AM 19.9 °F 6.7 °F 6.1 °F 55% 30.36 in 10.0 mi NNW 13.8 mph - N/A   Clear
12:54 PM 21.0 °F 5.7 °F 5.0 °F 50% 30.36 in 10.0 mi NW 19.6 mph - N/A   Clear
1:54 PM 21.0 °F 8.6 °F 6.1 °F 53% 30.35 in 10.0 mi NW 12.7 mph - N/A   Clear
2:54 PM 21.9 °F 9.2 °F 6.1 °F 51% 30.37 in 10.0 mi NNW 13.8 mph - N/A   Clear
3:54 PM 19.9 °F 7.3 °F 6.1 °F 55% 30.37 in 10.0 mi NW 12.7 mph - N/A   Clear
4:54 PM 18.0 °F 6.9 °F 5.0 °F 57% 30.38 in 10.0 mi NW 9.2 mph - N/A   Clear
5:54 PM 12.0 °F 2.7 °F 1.0 °F 61% 30.39 in 10.0 mi NNW 5.8 mph - N/A   Clear
6:54 PM 10.0 °F 3.6 °F 1.0 °F 67% 30.39 in 10.0 mi NNE 3.5 mph - N/A   Clear
7:54 PM 5.0 °F - -2.0 °F 73% 30.40 in 10.0 mi Calm Calm - N/A   Clear
8:54 PM 3.9 °F - -4.0 °F 70% 30.38 in 10.0 mi Calm Calm - N/A   Clear
9:54 PM 1.9 °F - -5.1 °F 72% 30.37 in 10.0 mi Calm Calm - N/A   Clear
10:54 PM 1.0 °F -10.3 °F -5.1 °F 75% 30.36 in 10.0 mi South 5.8 mph - N/A   Clear
11:54 PM 1.0 °F -11.7 °F -5.1 °F 75% 30.34 in 10.0 mi SSW 6.9 mph - N/A   Clear